Time,TemperatureF,DewpointF,PressureIn,WindDirection,WindDirectionDegrees,WindSpeedMPH,WindSpeedGustMPH,Humidity,HourlyPrecipIn,Conditions,Clouds,dailyrainin,SolarRadiationWatts/m^2,SoftwareType,DateUTC
2013-03-07 00:09:00,37.4,35.0,29.99,NE,42,0.0,0.0,92,0.00,,,0.27,0,weatherlink.com 1.10,2013-03-07 08:09:00,
2013-03-07 00:23:00,37.3,36.0,29.99,NE,42,0.0,0.0,93,0.00,,,0.00,0,weatherlink.com 1.10,2013-03-07 08:23:00,
2013-03-07 00:38:00,38.0,37.0,29.99,NE,36,0.0,2.0,94,0.00,,,0.00,0,weatherlink.com 1.10,2013-03-07 08:38:00,
2013-03-07 00:53:00,39.0,38.0,29.99,NE,36,0.0,2.0,95,0.00,,,0.00,0,weatherlink.com 1.10,2013-03-07 08:53:00,
2013-03-07 01:08:00,38.7,37.0,29.99,NE,36,0.0,2.0,94,0.00,,,0.00,0,weatherlink.com 1.10,2013-03-07 09:08:00,
2013-03-07 01:23:00,37.9,36.0,29.99,NE,36,0.0,2.0,93,0.00,,,0.00,0,weatherlink.com 1.10,2013-03-07 09:23:00,
2013-03-07 01:38:00,36.7,35.0,29.99,NE,36,0.0,0.0,93,0.00,,,0.00,0,weatherlink.com 1.10,2013-03-07 09:38:00,
2013-03-07 01:53:00,36.3,35.0,29.98,NE,36,0.0,1.0,93,0.00,,,0.00,0,weatherlink.com 1.10,2013-03-07 09:53:00,
2013-03-07 02:08:00,36.0,35.0,29.98,NE,36,0.0,0.0,94,0.00,,,0.00,0,weatherlink.com 1.10,2013-03-07 10:08:00,
2013-03-07 02:24:00,36.2,35.0,29.97,NE,36,0.0,2.0,94,0.00,,,0.00,0,weatherlink.com 1.10,2013-03-07 10:24:00,
2013-03-07 02:39:00,36.0,35.0,29.97,NE,36,0.0,1.0,94,0.00,,,0.00,0,weatherlink.com 1.10,2013-03-07 10:39:00,
2013-03-07 02:54:00,35.6,34.0,29.96,NE,36,0.0,1.0,94,0.00,,,0.00,0,weatherlink.com 1.10,2013-03-07 10:54:00,
2013-03-07 03:09:00,36.0,35.0,29.96,ENE,59,0.0,1.0,95,0.00,,,0.00,0,weatherlink.com 1.10,2013-03-07 11:09:00,
2013-03-07 03:24:00,36.2,35.0,29.95,ENE,58,0.0,0.0,95,0.00,,,0.00,0,weatherlink.com 1.10,2013-03-07 11:24:00,
2013-03-07 03:39:00,36.7,35.0,29.95,ENE,58,0.0,1.0,95,0.00,,,0.00,0,weatherlink.com 1.10,2013-03-07 11:39:00,
2013-03-07 03:54:00,37.0,36.0,29.95,ENE,58,0.0,2.0,95,0.00,,,0.00,0,weatherlink.com 1.10,2013-03-07 11:54:00,
2013-03-07 04:09:00,37.0,36.0,29.95,ENE,58,0.0,1.0,95,0.00,,,0.00,0,weatherlink.com 1.10,2013-03-07 12:09:00,
2013-03-07 04:24:00,36.6,35.0,29.95,SSE,150,0.0,3.0,95,0.00,,,0.00,0,weatherlink.com 1.10,2013-03-07 12:24:00,
2013-03-07 04:39:00,36.6,35.0,29.95,SSE,149,0.0,1.0,95,0.00,,,0.00,0,weatherlink.com 1.10,2013-03-07 12:39:00,
2013-03-07 04:54:00,36.8,36.0,29.95,SSE,157,0.0,2.0,95,0.00,,,0.00,0,weatherlink.com 1.10,2013-03-07 12:54:00,
2013-03-07 05:09:00,36.9,36.0,29.95,SE,130,0.0,2.0,95,0.00,,,0.00,0,weatherlink.com 1.10,2013-03-07 13:09:00,
2013-03-07 05:24:00,36.8,36.0,29.95,SE,129,0.0,0.0,95,0.00,,,0.00,0,weatherlink.com 1.10,2013-03-07 13:24:00,
2013-03-07 05:39:00,36.6,36.0,29.95,SE,129,0.0,0.0,96,0.00,,,0.00,0,weatherlink.com 1.10,2013-03-07 13:39:00,
2013-03-07 05:54:00,36.7,36.0,29.95,SE,129,0.0,1.0,96,0.00,,,0.00,0,weatherlink.com 1.10,2013-03-07 13:54:00,
2013-03-07 06:09:00,36.9,36.0,29.95,SE,129,0.0,0.0,96,0.00,,,0.00,0,weatherlink.com 1.10,2013-03-07 14:09:00,
2013-03-07 06:24:00,36.9,36.0,29.95,SE,129,0.0,0.0,96,0.00,,,0.00,0,weatherlink.com 1.10,2013-03-07 14:24:00,
2013-03-07 06:39:00,36.8,36.0,29.95,SE,129,0.0,1.0,96,0.00,,,0.00,5,weatherlink.com 1.10,2013-03-07 14:39:00,
2013-03-07 06:54:00,36.6,36.0,29.94,SE,129,0.0,1.0,96,0.00,,,0.00,19,weatherlink.com 1.10,2013-03-07 14:54:00,
2013-03-07 07:09:00,36.9,36.0,29.94,SE,128,0.0,1.0,96,0.00,,,0.00,35,weatherlink.com 1.10,2013-03-07 15:09:00,
2013-03-07 07:24:00,37.2,36.0,29.94,SE,128,0.0,1.0,96,0.00,,,0.00,37,weatherlink.com 1.10,2013-03-07 15:24:00,
2013-03-07 07:39:00,37.5,37.0,29.94,SE,128,0.0,0.0,96,0.00,,,0.00,42,weatherlink.com 1.10,2013-03-07 15:39:00,
2013-03-07 07:54:00,38.1,37.0,29.94,ENE,76,0.0,2.0,96,0.00,,,0.00,88,weatherlink.com 1.10,2013-03-07 15:54:00,
2013-03-07 08:09:00,38.7,38.0,29.94,ENE,76,0.0,0.0,96,0.00,,,0.00,151,weatherlink.com 1.10,2013-03-07 16:09:00,
2013-03-07 08:24:00,39.6,39.0,29.95,ENE,76,0.0,1.0,96,0.00,,,0.00,218,weatherlink.com 1.10,2013-03-07 16:24:00,
2013-03-07 08:39:00,40.6,40.0,29.95,ENE,78,0.0,3.0,96,0.00,,,0.00,200,weatherlink.com 1.10,2013-03-07 16:39:00,
2013-03-07 08:54:00,41.0,40.0,29.95,ESE,113,0.0,2.0,96,0.00,,,0.00,158,weatherlink.com 1.10,2013-03-07 16:54:00,
2013-03-07 09:09:00,41.7,40.0,29.95,ESE,113,0.0,1.0,95,0.00,,,0.00,195,weatherlink.com 1.10,2013-03-07 17:09:00,
2013-03-07 09:24:00,42.7,41.0,29.95,ESE,113,0.0,2.0,95,0.00,,,0.00,253,weatherlink.com 1.10,2013-03-07 17:24:00,
2013-03-07 09:39:00,43.9,42.0,29.95,ESE,121,4.0,4.0,91,0.00,,,0.00,264,weatherlink.com 1.10,2013-03-07 17:39:00,
2013-03-07 09:54:00,45.4,42.0,29.95,ESE,117,1.0,4.0,89,0.00,,,0.00,422,weatherlink.com 1.10,2013-03-07 17:54:00,
2013-03-07 10:09:00,47.2,43.0,29.94,SSE,148,0.0,3.0,85,0.00,,,0.00,367,weatherlink.com 1.10,2013-03-07 18:09:00,
2013-03-07 10:25:00,49.9,44.0,29.94,WSW,254,0.0,4.0,79,0.00,,,0.00,431,weatherlink.com 1.10,2013-03-07 18:25:00,
2013-03-07 10:40:00,51.4,44.0,29.94,SSW,213,1.0,7.0,76,0.00,,,0.00,508,weatherlink.com 1.10,2013-03-07 18:40:00,
2013-03-07 10:55:00,52.7,45.0,29.93,South,181,2.0,5.0,76,0.00,,,0.00,647,weatherlink.com 1.10,2013-03-07 18:55:00,
2013-03-07 11:10:00,53.7,43.0,29.93,SSE,163,1.0,5.0,68,0.00,,,0.00,350,weatherlink.com 1.10,2013-03-07 19:10:00,
2013-03-07 11:25:00,53.5,43.0,29.93,SSE,151,4.0,6.0,68,0.00,,,0.00,320,weatherlink.com 1.10,2013-03-07 19:25:00,
2013-03-07 11:56:00,53.3,43.0,29.92,SSW,198,2.0,5.0,69,0.00,,,0.00,352,weatherlink.com 1.10,2013-03-07 19:56:00,
2013-03-07 12:11:00,53.3,42.0,29.92,SSW,203,2.0,5.0,65,0.00,,,0.00,257,weatherlink.com 1.10,2013-03-07 20:11:00,
2013-03-07 12:26:00,53.3,41.0,29.91,SSE,167,2.0,5.0,63,0.00,,,0.00,199,weatherlink.com 1.10,2013-03-07 20:26:00,
2013-03-07 12:41:00,53.5,41.0,29.91,SSW,205,0.0,5.0,62,0.00,,,0.00,272,weatherlink.com 1.10,2013-03-07 20:41:00,
2013-03-07 12:56:00,54.1,41.0,29.90,South,176,1.0,4.0,61,0.00,,,0.00,250,weatherlink.com 1.10,2013-03-07 20:56:00,
2013-03-07 13:11:00,53.7,40.0,29.90,SW,225,1.0,4.0,60,0.00,,,0.00,227,weatherlink.com 1.10,2013-03-07 21:11:00,
2013-03-07 13:26:00,53.6,40.0,29.89,SSE,152,3.0,3.0,61,0.00,,,0.00,258,weatherlink.com 1.10,2013-03-07 21:26:00,
2013-03-07 13:41:00,53.4,39.0,29.89,SSE,154,0.0,5.0,59,0.00,,,0.00,200,weatherlink.com 1.10,2013-03-07 21:41:00,
2013-03-07 13:56:00,53.8,40.0,29.89,South,182,0.0,3.0,59,0.00,,,0.00,239,weatherlink.com 1.10,2013-03-07 21:56:00,
2013-03-07 14:11:00,54.1,39.0,29.88,SE,146,5.0,8.0,58,0.00,,,0.00,244,weatherlink.com 1.10,2013-03-07 22:11:00,
2013-03-07 14:26:00,54.1,39.0,29.87,SE,137,2.0,7.0,58,0.00,,,0.00,267,weatherlink.com 1.10,2013-03-07 22:26:00,
2013-03-07 14:41:00,54.5,39.0,29.87,SSW,207,0.0,9.0,56,0.00,,,0.00,258,weatherlink.com 1.10,2013-03-07 22:41:00,
2013-03-07 14:56:00,54.6,39.0,29.87,South,188,0.0,7.0,55,0.00,,,0.00,174,weatherlink.com 1.10,2013-03-07 22:56:00,
2013-03-07 15:11:00,55.1,39.0,29.87,South,188,0.0,3.0,56,0.00,,,0.00,218,weatherlink.com 1.10,2013-03-07 23:11:00,
2013-03-07 15:26:00,55.4,39.0,29.87,SSW,200,0.0,4.0,54,0.00,,,0.00,142,weatherlink.com 1.10,2013-03-07 23:26:00,
2013-03-07 15:41:00,55.1,39.0,29.86,SSW,196,0.0,3.0,55,0.00,,,0.00,100,weatherlink.com 1.10,2013-03-07 23:41:00,
2013-03-07 15:56:00,55.0,39.0,29.86,SSW,196,0.0,3.0,55,0.00,,,0.00,72,weatherlink.com 1.10,2013-03-07 23:56:00,
2013-03-07 16:11:00,54.7,40.0,29.86,South,191,0.0,2.0,57,0.00,,,0.00,83,weatherlink.com 1.10,2013-03-08 00:11:00,
2013-03-07 16:26:00,54.9,39.0,29.86,WNW,292,0.0,3.0,55,0.00,,,0.00,49,weatherlink.com 1.10,2013-03-08 00:26:00,
2013-03-07 16:41:00,54.4,40.0,29.86,WNW,288,2.0,5.0,58,0.00,,,0.00,46,weatherlink.com 1.10,2013-03-08 00:41:00,
2013-03-07 16:56:00,52.7,45.0,29.86,NNW,338,4.0,9.0,74,0.00,,,0.00,35,weatherlink.com 1.10,2013-03-08 00:56:00,
2013-03-07 17:11:00,50.0,45.0,29.86,NW,317,4.0,8.0,83,0.01,,,0.01,42,weatherlink.com 1.10,2013-03-08 01:11:00,
2013-03-07 17:41:00,49.4,46.0,29.86,NNW,344,4.0,6.0,87,0.01,,,0.01,14,weatherlink.com 1.10,2013-03-08 01:41:00,
2013-03-07 17:56:00,49.0,45.0,29.86,NNE,19,0.0,6.0,85,0.01,,,0.01,5,weatherlink.com 1.10,2013-03-08 01:56:00,
2013-03-07 18:11:00,49.1,45.0,29.86,NNW,333,0.0,4.0,86,0.00,,,0.01,0,weatherlink.com 1.10,2013-03-08 02:11:00,
2013-03-07 18:26:00,48.7,45.0,29.86,NW,319,0.0,5.0,86,0.00,,,0.01,0,weatherlink.com 1.10,2013-03-08 02:26:00,
2013-03-07 18:41:00,48.4,45.0,29.87,NW,310,0.0,2.0,87,0.00,,,0.01,0,weatherlink.com 1.10,2013-03-08 02:41:00,
2013-03-07 18:56:00,48.2,45.0,29.87,NNW,329,1.0,4.0,87,0.00,,,0.01,0,weatherlink.com 1.10,2013-03-08 02:56:00,
2013-03-07 19:11:00,48.1,44.0,29.87,NNE,19,1.0,4.0,87,0.00,,,0.01,0,weatherlink.com 1.10,2013-03-08 03:11:00,
2013-03-07 19:26:00,48.0,45.0,29.87,NNE,23,2.0,3.0,88,0.00,,,0.01,0,weatherlink.com 1.10,2013-03-08 03:26:00,
2013-03-07 19:41:00,47.8,45.0,29.88,NNW,338,1.0,5.0,88,0.00,,,0.01,0,weatherlink.com 1.10,2013-03-08 03:41:00,
2013-03-07 19:56:00,47.8,45.0,29.87,NW,317,0.0,4.0,88,0.00,,,0.01,0,weatherlink.com 1.10,2013-03-08 03:56:00,
2013-03-07 20:11:00,47.5,44.0,29.87,North,360,1.0,4.0,88,0.00,,,0.01,0,weatherlink.com 1.10,2013-03-08 04:11:00,
2013-03-07 20:26:00,47.4,44.0,29.87,North,5,2.0,3.0,88,0.00,,,0.01,0,weatherlink.com 1.10,2013-03-08 04:26:00,
2013-03-07 20:41:00,47.3,44.0,29.87,NNE,19,4.0,4.0,88,0.00,,,0.01,0,weatherlink.com 1.10,2013-03-08 04:41:00,
2013-03-07 20:56:00,47.3,44.0,29.87,NNE,23,3.0,6.0,88,0.00,,,0.01,0,weatherlink.com 1.10,2013-03-08 04:56:00,
2013-03-07 21:11:00,47.1,44.0,29.87,NNW,346,3.0,4.0,89,0.00,,,0.01,0,weatherlink.com 1.10,2013-03-08 05:11:00,
2013-03-07 21:26:00,47.0,44.0,29.87,NNW,344,2.0,4.0,89,0.00,,,0.01,0,weatherlink.com 1.10,2013-03-08 05:26:00,
2013-03-07 21:41:00,46.8,44.0,29.88,NNW,340,1.0,3.0,89,0.00,,,0.01,0,weatherlink.com 1.10,2013-03-08 05:41:00,
2013-03-07 21:56:00,46.6,44.0,29.88,NNE,31,1.0,3.0,89,0.00,,,0.01,0,weatherlink.com 1.10,2013-03-08 05:56:00,
2013-03-07 22:11:00,46.5,44.0,29.87,NNE,18,0.0,4.0,89,0.00,,,0.01,0,weatherlink.com 1.10,2013-03-08 06:11:00,
2013-03-07 22:26:00,46.6,43.0,29.87,NNW,331,1.0,2.0,88,0.00,,,0.01,0,weatherlink.com 1.10,2013-03-08 06:26:00,
2013-03-07 22:41:00,46.4,43.0,29.87,NNW,342,0.0,2.0,87,0.00,,,0.01,0,weatherlink.com 1.10,2013-03-08 06:41:00,
2013-03-07 22:56:00,46.0,42.0,29.87,NNW,336,0.0,2.0,87,0.00,,,0.01,0,weatherlink.com 1.10,2013-03-08 06:56:00,
2013-03-07 23:11:00,45.6,42.0,29.87,NNW,339,0.0,2.0,87,0.00,,,0.01,0,weatherlink.com 1.10,2013-03-08 07:11:00,
2013-03-07 23:26:00,45.4,42.0,29.86,NNW,339,0.0,1.0,87,0.00,,,0.01,0,weatherlink.com 1.10,2013-03-08 07:26:00,
2013-03-07 23:41:00,44.9,41.0,29.86,NNW,339,0.0,0.0,87,0.00,,,0.01,0,weatherlink.com 1.10,2013-03-08 07:41:00,
2013-03-07 23:56:00,44.3,41.0,29.86,NNW,339,0.0,0.0,87,0.00,,,0.01,0,weatherlink.com 1.10,2013-03-08 07:56:00,